| time (UTC) | temp C | wind direction | speed KPH | gust KPH | rain 1hr cm | rain 24hr cm | rain mn cm | humidity % | barometer mb |
| 20260901014607 | 17 | 0 | 0.0 | 0.0 | 0.00 | 1.07 | 1.07 | 89 | 1012.9 |
| 20260901013101 | 18 | 0 | 0.0 | 0.0 | 0.00 | 1.07 | 1.07 | 88 | 1012.6 |
| 20260901011607 | 18 | 0 | 0.0 | 0.0 | 0.00 | 1.07 | 1.07 | 86 | 1012.5 |
| 20260901010058 | 20 | 0 | 0.0 | 0.0 | 0.00 | 1.07 | 1.07 | 83 | 1012.4 |
| 20260901004618 | 21 | 0 | 0.0 | 0.0 | 0.00 | 1.07 | 1.07 | 79 | 1012.1 |
| 20260901003101 | 22 | 0 | 0.0 | 0.0 | 0.00 | 1.07 | 1.07 | 75 | 1012.0 |
| 20260901001606 | 23 | 0 | 0.0 | 0.0 | 0.00 | 1.07 | 1.07 | 70 | 1011.9 |
| 20260901000109 | 25 | 0 | 0.0 | 4.8 | 0.00 | 1.07 | 1.07 | 67 | 1012.0 |
| 20260831234609 | 26 | 0 | 0.0 | 6.4 | 0.00 | 1.07 | 1.07 | 61 | 1011.9 |
| 20260831233105 | 25 | 211 | 0.0 | 4.8 | 0.00 | 1.07 | 1.07 | 61 | 1012.0 |
| 20260831231609 | 25 | 0 | 0.0 | 6.4 | 0.00 | 1.07 | 1.07 | 60 | 1012.0 |
| 20260831230059 | 25 | 319 | 0.0 | 6.4 | 0.00 | 1.07 | 1.07 | 54 | 1011.9 |
| 20260831224558 | 25 | 335 | 0.0 | 9.7 | 0.00 | 1.07 | 1.07 | 52 | 1011.8 |
| 20260831223106 | 26 | 199 | 0.0 | 11.3 | 0.00 | 1.07 | 1.07 | 52 | 1011.9 |
| 20260831221610 | 26 | 0 | 0.0 | 6.4 | 0.00 | 1.07 | 1.07 | 53 | 1011.9 |
| 20260831220103 | 26 | 294 | 0.0 | 11.3 | 0.00 | 1.07 | 1.07 | 50 | 1011.8 |
| 20260831214607 | 26 | 0 | 1.6 | 11.3 | 0.00 | 1.07 | 1.07 | 50 | 1011.7 |
| 20260831213101 | 27 | 40 | 3.2 | 9.7 | 0.00 | 1.07 | 1.07 | 51 | 1011.8 |
| 20260831211601 | 27 | 287 | 1.6 | 11.3 | 0.00 | 1.07 | 1.07 | 51 | 1012.0 |
| 20260831210106 | 27 | 263 | 3.2 | 11.3 | 0.00 | 1.07 | 1.07 | 49 | 1012.0 |
| 20260831204553 | 27 | 304 | 4.8 | 16.1 | 0.00 | 1.07 | 1.07 | 56 | 1012.0 |
| 20260831203107 | 27 | 242 | 3.2 | 12.9 | 0.00 | 1.07 | 1.07 | 62 | 1011.7 |
| 20260831201559 | 26 | 288 | 4.8 | 14.5 | 0.00 | 1.07 | 1.07 | 64 | 1011.8 |
| 20260831200059 | 26 | 184 | 4.8 | 19.3 | 0.00 | 1.07 | 1.07 | 64 | 1011.7 |
| 20260831194615 | 26 | 317 | 3.2 | 17.7 | 0.00 | 1.07 | 1.07 | 66 | 1011.6 |
| 20260831193104 | 26 | 279 | 3.2 | 16.1 | 0.00 | 1.07 | 1.07 | 76 | 1011.4 |
| 20260831191606 | 25 | 230 | 3.2 | 12.9 | 0.00 | 1.07 | 1.07 | 78 | 1011.4 |
| 20260831190118 | 25 | 0 | 1.6 | 14.5 | 0.00 | 1.07 | 1.07 | 84 | 1011.6 |
| 20260831184559 | 23 | 228 | 1.6 | 14.5 | 0.00 | 1.07 | 1.07 | 85 | 1011.4 |
| 20260831183101 | 23 | 232 | 1.6 | 14.5 | 0.00 | 1.07 | 1.07 | 87 | 1011.5 |
| 20260831181604 | 22 | 277 | 6.4 | 14.5 | 0.00 | 1.07 | 1.07 | 92 | 1011.5 |
| 20260831180105 | 22 | 232 | 1.6 | 9.7 | 0.00 | 1.07 | 1.07 | 93 | 1011.6 |
| 20260831174623 | 21 | 285 | 1.6 | 9.7 | 0.00 | 1.07 | 1.07 | 95 | 1011.6 |
| 20260831173053 | 21 | 227 | 0.0 | 6.4 | 0.00 | 1.07 | 1.07 | 97 | 1011.4 |
| 20260831171603 | 21 | 0 | 0.0 | 8.0 | 0.00 | 1.07 | 1.07 | 98 | 1011.5 |
| 20260831170058 | 20 | 0 | 1.6 | 6.4 | 0.03 | 1.07 | 1.07 | 98 | 1011.8 |
| 20260831164605 | 20 | 276 | 1.6 | 11.3 | 0.03 | 1.07 | 1.07 | 98 | 1011.7 |
| 20260831163107 | 20 | 0 | 0.0 | 4.8 | 0.03 | 1.07 | 1.07 | 98 | 1011.6 |
| 20260831161606 | 20 | 233 | 0.0 | 8.0 | 0.03 | 1.07 | 1.07 | 98 | 1011.3 |
| 20260831160106 | 20 | 0 | 0.0 | 8.0 | 0.00 | 1.04 | 1.04 | 98 | 1011.3 |
| 20260831154624 | 20 | 200 | 3.2 | 12.9 | 0.00 | 1.04 | 1.04 | 98 | 1011.3 |
| 20260831153118 | 20 | 232 | 3.2 | 6.4 | 0.00 | 1.04 | 1.04 | 99 | 1010.9 |
| 20260831151613 | 20 | 0 | 0.0 | 8.0 | 0.00 | 1.04 | 1.04 | 99 | 1010.8 |
| 20260831150106 | 19 | 261 | 1.6 | 8.0 | 0.00 | 1.04 | 1.04 | 99 | 1010.6 |
| 20260831144605 | 19 | 167 | 0.0 | 6.4 | 0.00 | 1.04 | 1.04 | 99 | 1010.6 |
| 20260831143109 | 19 | 0 | 0.0 | 3.2 | 0.00 | 1.04 | 1.04 | 99 | 1010.3 |
| 20260831141605 | 19 | 0 | 0.0 | 4.8 | 0.00 | 1.04 | 1.04 | 99 | 1010.1 |
| 20260831140104 | 19 | 0 | 0.0 | 4.8 | 0.00 | 1.04 | 1.04 | 99 | 1010.2 |
| 20260831134614 | 18 | 0 | 0.0 | 0.0 | 0.00 | 1.04 | 1.04 | 99 | 1010.2 |
| 20260831133107 | 18 | 221 | 0.0 | 6.4 | 0.00 | 1.04 | 1.04 | 99 | 1010.1 |
| 20260831131601 | 18 | 0 | 1.6 | 6.4 | 0.00 | 1.04 | 1.04 | 99 | 1010.2 |
| 20260831130059 | 18 | 0 | 0.0 | 8.0 | 0.00 | 1.04 | 1.04 | 99 | 1009.8 |
| 20260831124608 | 18 | 182 | 0.0 | 3.2 | 0.00 | 1.04 | 1.04 | 99 | 1009.9 |
| 20260831123105 | 18 | 0 | 0.0 | 1.6 | 0.00 | 1.04 | 1.04 | 99 | 1010.0 |
| 20260831121632 | 18 | 0 | 0.0 | 4.8 | 0.00 | 1.04 | 1.04 | 99 | 1009.9 |
| 20260831120059 | 17 | 0 | 0.0 | 0.0 | 0.00 | 1.04 | 1.04 | 99 | 1009.9 |
| 20260831114605 | 17 | 0 | 0.0 | 0.0 | 0.00 | 1.04 | 1.04 | 99 | 1010.0 |
| 20260831113109 | 17 | 0 | 0.0 | 0.0 | 0.00 | 1.04 | 1.04 | 99 | 1009.9 |
| 20260831111557 | 17 | 0 | 0.0 | 6.4 | 0.05 | 1.04 | 1.04 | 98 | 1009.7 |
| 20260831110107 | 17 | 140 | 0.0 | 6.4 | 0.13 | 1.04 | 1.04 | 98 | 1009.8 |
| 20260831104605 | 17 | 194 | 3.2 | 14.5 | 0.23 | 1.04 | 1.04 | 98 | 1009.7 |
| 20260831103111 | 17 | 140 | 3.2 | 12.9 | 0.43 | 1.04 | 1.04 | 98 | 1009.8 |
| 20260831101610 | 17 | 89 | 3.2 | 9.7 | 0.43 | 0.99 | 0.99 | 98 | 1009.9 |
| 20260831100110 | 17 | 82 | 0.0 | 6.4 | 0.48 | 0.91 | 0.91 | 98 | 1010.3 |
| 20260831094608 | 17 | 0 | 1.6 | 8.0 | 0.38 | 0.81 | 0.81 | 98 | 1010.4 |
| 20260831093152 | 17 | 189 | 3.2 | 11.3 | 0.18 | 0.61 | 0.61 | 98 | 1010.1 |
| 20260831091606 | 17 | 121 | 3.2 | 11.3 | 0.10 | 0.53 | 0.53 | 98 | 1009.8 |
| 20260831090108 | 17 | 184 | 1.6 | 9.7 | 0.00 | 0.43 | 0.43 | 98 | 1010.7 |
| 20260831084652 | 17 | 104 | 3.2 | 12.9 | 0.00 | 0.43 | 0.43 | 98 | 1009.9 |
| 20260831083107 | 17 | 76 | 3.2 | 14.5 | 0.00 | 0.43 | 0.43 | 98 | 1009.5 |
| 20260831081558 | 17 | 88 | 4.8 | 11.3 | 0.00 | 0.43 | 0.43 | 98 | 1009.6 |
| 20260831080117 | 17 | 109 | 3.2 | 9.7 | 0.00 | 0.43 | 0.43 | 98 | 1009.7 |
| 20260831074553 | 17 | 127 | 3.2 | 6.4 | 0.00 | 0.43 | 0.43 | 98 | 1010.0 |
| 20260831073057 | 17 | 0 | 1.6 | 6.4 | 0.05 | 0.43 | 0.43 | 98 | 1010.2 |
| 20260831071612 | 17 | 0 | 1.6 | 8.0 | 0.08 | 0.43 | 0.43 | 98 | 1010.3 |
| 20260831070056 | 17 | 101 | 1.6 | 9.7 | 0.18 | 0.43 | 0.43 | 98 | 1010.2 |
| 20260831064603 | 17 | 134 | 4.8 | 11.3 | 0.18 | 0.43 | 0.43 | 97 | 1010.4 |
| 20260831063108 | 17 | 106 | 1.6 | 9.7 | 0.23 | 0.38 | 0.38 | 97 | 1010.6 |
| 20260831061605 | 17 | 95 | 1.6 | 4.8 | 0.36 | 0.36 | 0.36 | 97 | 1011.5 |
| 20260831060122 | 17 | 0 | 0.0 | 3.2 | 0.25 | 0.25 | 0.25 | 97 | 1011.8 |
| 20260831054604 | 17 | 145 | 1.6 | 12.9 | 0.25 | 0.25 | 0.25 | 96 | 1011.1 |
| 20260831053102 | 17 | 92 | 1.6 | 11.3 | 0.15 | 0.15 | 0.15 | 95 | 1011.9 |
| 20260831051602 | 17 | 128 | 3.2 | 11.3 | 0.00 | 0.00 | 0.00 | 94 | 1012.4 |
| 20260831050118 | 17 | 117 | 4.8 | 16.1 | 0.00 | 0.00 | 0.00 | 94 | 1012.4 |
| 20260831044610 | 17 | 84 | 6.4 | 20.9 | 0.00 | 0.00 | 0.00 | 94 | 1012.4 |
| 20260831043105 | 17 | 109 | 6.4 | 16.1 | 0.00 | 0.00 | 0.00 | 94 | 1012.8 |
| 20260831041558 | 17 | 114 | 1.6 | 16.1 | 0.00 | 0.00 | 0.00 | 93 | 1013.0 |
| 20260831040054 | 17 | 0 | 4.8 | 17.7 | 0.00 | 0.00 | 0.00 | 93 | 1013.3 |
| 20260831034601 | 17 | 99 | 4.8 | 14.5 | 0.00 | 0.00 | 0.00 | 92 | 1013.7 |
| 20260831033104 | 18 | 109 | 3.2 | 19.3 | 0.00 | 0.00 | 0.00 | 91 | 1013.4 |
| 20260831031557 | 18 | 120 | 4.8 | 12.9 | 0.00 | 0.00 | 0.00 | 91 | 1013.6 |
| 20260831030056 | 18 | 100 | 4.8 | 14.5 | 0.00 | 0.00 | 0.00 | 91 | 1013.8 |
| 20260831024559 | 18 | 0 | 4.8 | 12.9 | 0.00 | 0.00 | 0.00 | 91 | 1013.9 |
| 20260831023105 | 18 | 0 | 1.6 | 11.3 | 0.00 | 0.00 | 0.00 | 91 | 1013.9 |
| 20260831021555 | 18 | 128 | 6.4 | 19.3 | 0.00 | 0.00 | 0.00 | 91 | 1013.7 |
| 20260831020056 | 18 | 117 | 1.6 | 12.9 | 0.00 | 0.00 | 0.00 | 91 | 1013.5 |